Погода Пировское

Погода Пировское : погода сейчас, прогноз погоды и архив. Всё, что Вы хотите узнать о погоде Пировское!

Поиск расширенной информации на нашем сайте:

Другие новости

Новости СМИ2

Главная страница сайта

Новости сайта

03.07.2017

Напоминаем, что на нашем специализированном сайте Метеоцентр.Азия вы можете получить высокодетализированные автоматические прогнозы погоды по пунктам России, СНГ и мира в авиационном формате (включающие направление и скорость ветра, видимость, явления погоды, количество и форму облачности, нижнюю и верхнюю границу облачности).


Погода Пировское - сегодня

Время (UTC), дата Ветер
(°,м/с) 
Видим.   Явления Облачность Т
(°С)
Тd
(°С)
f(%) Тe
(°С)
Pmin
(гПа)
dP
(гПа)
Po
(мм)
O2
(г/м3)
Тmin Tmax R s Состояние
почвы
15 19.11.17 290 (З) н/о    н/о 
-2.1 -5.1 80 -4  1018  1.1  746  304           
18 19.11.17 290 (З) 5-11{12}  н/о    н/о 
-6.6 -10.2 76 -11  1020.9  2.5  748  310           
21 19.11.17 270 (З) 3{11}  н/о    н/о 
-9.2 -11.9 81 -12  1022.8  1.5  749  314           
00 20.11.17 250 (З) 3-6  н/о    н/о 
-9.8 -11.4 88 -13  1023.7  0.9  750  315  -10.2    0.0  12  равномерный
сухой снег
100% 
03 20.11.17 280 (З) н/о    н/о 
-8.3 -10.4 85 -12  1024.2  0.6  751  313           
06 20.11.17 280 (З) 5{11}  н/о    н/о 
-8.4 -12 75 -13  1025.4  1.2  751  314           
09 20.11.17 270 (З) н/о    н/о 
-8.4 -11.4 79 -11  1026.5  752  314           
12 20.11.17 300 (СЗ) 2-3  н/о    н/о 
-10.8 -12.6 87 -13  1028.6  754  317    -7.8  0.3     
15 20.11.17 290 (З) н/о    н/о 
-13.4 -14.5 91 -13  1030.4  1.5  755  321           
18 20.11.17 тихо ()   н/о    н/о 
-15 -16.1 91 -15  1030.9  1.5  755  323           
21 20.11.17 тихо ()   н/о    н/о 
-16 -17.4 89 -16  1030.6  -0.4  755  324           
00 21.11.17 тихо () -0  н/о    н/о 
-17.1 -18.8 87 -17  1030  -0.6  754  326  -17.1      13  равномерный
сухой снег
100% 
03 21.11.17 тихо ()   н/о    н/о 
-14.6 -16.1 88 -15  1029  -0.9  754  322  -17.8         
06 21.11.17 230 (ЮЗ) н/о    н/о 
-6 -6.9 93 -6  1027.4  -0.8  753  311           
09 21.11.17 230 (ЮЗ) н/о    н/о 
-3.8 -4.3 96 -3  1026.7  -0.4  753  308           
12 21.11.17 260 (З) 3-5  н/о    н/о 
-3.7 -4.6 93 -6  1027.1  0.5  753  308    -3.5     
15 21.11.17 260 (З) н/о    н/о 
-4 -5.1 92 -5  1027  -0.3  753  308           
18 21.11.17 250 (З) н/о    н/о 
-4 -4.9 93 -5  1025.7  -1.2  752  308           
21 21.11.17 230 (ЮЗ) н/о    н/о 
-4.4 -4.6 99 -4  1023.9  -1.8  751  308           
00 22.11.17 200 (Ю) 2-3  н/о    н/о 
-4 -4.1 99 -5  1020.5  -3.2  748  306  -4.4    15  равномерный
сухой снег
100% 
03 22.11.17 тихо ()   н/о    н/о 
-3.7 -3.8 99 -4  1019.7  -0.8  748  306           
06 22.11.17 320 (СЗ) н/о    н/о 
-2.7 -3.9 91 -4  1022.7  750  306           
09 22.11.17 310 (СЗ) н/о    н/о 
-2.9 -4.7 87 -2  1026.3  3.5  752  307           
12 22.11.17 290 (З) 2-3  н/о    н/о 
-3.4 -5 89 -5  1028.4  754  308    -2.7     
15 22.11.17 260 (З) н/о    н/о 
-4 -4.9 93 -4  1029.2  0.6  755  309           
Время (UTC), дата Ветер
(°,м/с) 
Видим.   Явления Облачность Т
(°С)
Тd
(°С)
f(%) Тe
(°С)
Pmin
(гПа)
dP
(гПа)
Po
(мм)
O2
(г/м3)
Тmin Tmax R s Состояние
почвы

Для получения пояснительной информации подведите курсор к названию столбца.

ПОГОДА Пировское - архив

Всё, что Вы хотите узнать о погоде Пировское - удобно и подробно!

Выберите нужную дату (начиная с 1 января 2015* года) и нажмите кнопку "Найти".
Будут отображены архивные сводки погоды по пункту Пировское, начиная с указанной даты.


Отображать данные в формате CSV (для использования в таблицах Excel)


Внимание! Наш архив погоды предназначен исключительно для личного некоммерческого использования в познавательных целях. Если Вам необходимы официальные справки о состоянии погоды (для производственных, юридических, коммерческих и т.п. целей), обращайтесь в органы Росгидромета.

*Примечание: данная дата относится к архиву по метеостанциям СССР (Россия, СНГ, Балтия).
Архив по метеостанциям Зарубежной Европы и Азии (кроме Китая) хранится 10 дней, по другим регионам земного шара (Китай, Африка, Америка, Австралия, Океания) - 1 день.

Пировское - район местоположения метеостанции


Название, широта, долгота, высота метеостанции:
Пировское 57.6°ш. 92.3°д. 179 м над ур. моря [Российская Федерация]

Дополнительная информация

В oтличие oт бoльшинства пoгoдных сайтoв мы публикуем пoдрoбную метеoинфoрмацию в детальнoм прoфессиoнальнoм фoрмате.

Характеристики температуры и влажнoсти вoздуха измеряются на высoте 2 м в тени вдали oт зданий и деревьев.
Скoрoсть ветра измеряется на высoте 10 м (на урoвне рoста челoвека скoрoсть ветра ниже в 1.5-2 раза). Если метеoстанция нахoдится в гoрoде или в лесу, тo скoрoсть ветра занижена на 2-4 м/с пo сравнению с oткрытым местoм. Скoрoсть ветра над акватoриями крупных рек и oзёр, а также на вершинах хoлмoв на 2-5 м/с выше, чем в oбычных услoвиях.
Атмoсфернoе давление в разных тoчках местнoсти мoжет значительнo oтличаться oт давления на метеoстанции, в зависимoсти oт услoвий рельефа (при пoдъёме на 10 м давление пoнижается примернo на 1 мм рт.ст.).